Location: Serin Observatory
(40.5200°N, 74.4500°W)
Time: 01:38:57
(UTC+00:00)

SL-8 R/B - Visible Passes

Search period start: 22 November 2014 00:00
Search period end: 02 December 2014 00:00
Orbit: 659 x 669 km, 48.4° (Epoch: 21 November)

Date Brightness Start Highest point End Pass type
(mag) Time Alt. Az. Time Alt. Az. Time Alt. Az.
22 Nov 6.4 22:46:29 10° W 22:49:52 19° SW 22:53:15 10° S visible
24 Nov 6.6 22:07:25 10° W 22:10:35 18° SW 22:13:44 10° S visible
29 Nov 6.8 11:05:16 10° SSE 11:07:42 14° SE 11:10:08 10° E visible
01 Dec 6.6 10:25:37 10° SSE 10:28:23 15° SE 10:31:09 10° E visible
